Weather History for Hallock, MN

Change the Weather History Date:

Wednesday, November 21, 2012

  Actual Average Record
Temperature  
Mean Temperature 36 °F -  
Max Temperature 41 °F 29 °F 52 °F (1990)
Min Temperature 30 °F 13 °F -19 °F (1978)
Degree Days  
Heating Degree Days 30    
Moisture  
Dew Point 33 °F    
Average Humidity 95    
Maximum Humidity 100    
Minimum Humidity 87    
Precipitation  
Precipitation 0.00 in - - ()
Sea Level Pressure  
Sea Level Pressure 29.75 in    
Wind  
Wind Speed 4 mph (East)    
Max Wind Speed 12 mph    
Max Gust Speed -    
Visibility 8 miles    
Events      
Averages and records for this station are not official NWS values.
T = Trace of Precipitation, MM = Missing Value Source: NWS Daily Summary

Daily Weather History Graph

Daily Weather History Graph

Search for Another Location

Airport:

Trip Planner

Search our weather history database for the weather conditions in past years. The results will help you decide how hot, cold, wet, or windy it might be!

Date:

Astronomy

Nov. 21, 2012 Rise Set
Actual Time 7:46 AM CST 4:40 PM CST
Civil Twilight 7:11 AM CST 5:16 PM CST
Nautical Twilight 6:32 AM CST 5:54 PM CST
Astronomical Twilight 5:54 AM CST 6:32 PM CST
Moon 1:25 PM CST (11/21) 12:35 AM CST (11/21)
Length of Visible Light 10h 04m
Length of Day
8h 54m
First Quarter, 62% of the Moon is Illuminated
Nov 21
First Quarter
Nov 28
Full
Dec 6
Last Quarter
Dec 13
New
Dec 19
First Quarter

Hourly Weather History & Observations

Time (CST) Temp. Windchill Dew Point Humidity Pressure Visibility Wind Dir Wind Speed Gust Speed Precip Events Conditions
12:14 AM 33.8 °F 27.0 °F 33.8 °F 100% 29.82 in 10.0 mi South 8.1 mph - N/A   Clear
12:34 AM 33.8 °F 26.4 °F 33.8 °F 100% 29.82 in 10.0 mi South 9.2 mph - N/A   Clear
12:54 AM 33.8 °F 29.6 °F 33.8 °F 100% 29.83 in 10.0 mi South 4.6 mph - N/A   Clear
1:14 AM 33.8 °F 27.0 °F 32.0 °F 93% 29.82 in 10.0 mi South 8.1 mph - N/A   Clear
1:34 AM 32.0 °F 26.4 °F 30.2 °F 93% 29.83 in 10.0 mi SSW 5.8 mph - N/A   Clear
1:54 AM 32.0 °F 28.7 °F 30.2 °F 93% 29.84 in 7.0 mi SSW 3.5 mph - N/A   Clear
2:14 AM 32.0 °F 27.5 °F 30.2 °F 93% 29.84 in 7.0 mi South 4.6 mph - N/A   Clear
2:34 AM 32.0 °F 28.7 °F 30.2 °F 93% 29.84 in 7.0 mi South 3.5 mph - N/A   Clear
2:54 AM 30.2 °F 26.7 °F 30.2 °F 100% 29.85 in 7.0 mi South 3.5 mph - N/A   Clear
3:14 AM 30.2 °F - 30.2 °F 100% 29.85 in 7.0 mi Calm Calm - N/A   Clear
3:34 AM 30.2 °F 24.3 °F 30.2 °F 100% 29.85 in 7.0 mi SSE 5.8 mph - N/A   Clear
3:54 AM 30.2 °F 24.3 °F 30.2 °F 100% 29.85 in 7.0 mi SSE 5.8 mph - N/A   Clear
4:14 AM 30.2 °F 26.7 °F 30.2 °F 100% 29.84 in 7.0 mi SSE 3.5 mph - N/A   Clear
4:34 AM 30.2 °F 24.3 °F 30.2 °F 100% 29.84 in 7.0 mi SSE 5.8 mph - N/A   Clear
4:54 AM 30.2 °F 26.7 °F 30.2 °F 100% 29.85 in 7.0 mi South 3.5 mph - N/A   Clear
5:14 AM 30.2 °F - 30.2 °F 100% 29.85 in 7.0 mi Calm Calm - N/A   Clear
5:34 AM 30.2 °F - 30.2 °F 100% 29.86 in 7.0 mi Calm Calm - N/A   Clear
5:54 AM 30.2 °F 26.7 °F 30.2 °F 100% 29.86 in 7.0 mi South 3.5 mph - N/A   Clear
6:14 AM 30.2 °F - 30.2 °F 100% 29.86 in 7.0 mi Calm Calm - N/A   Clear
6:34 AM 30.2 °F - 30.2 °F 100% 29.87 in 7.0 mi Calm Calm - N/A   Clear
6:54 AM 30.2 °F - 30.2 °F 100% 29.86 in 7.0 mi Calm Calm - N/A   Clear
7:14 AM 30.2 °F 26.7 °F 30.2 °F 100% 29.84 in 7.0 mi East 3.5 mph - N/A   Clear
7:34 AM 30.2 °F - 30.2 °F 100% 29.85 in 7.0 mi Calm Calm - N/A   Clear
7:54 AM 30.2 °F - 30.2 °F 100% 29.86 in 5.0 mi Calm Calm - N/A   Clear
8:14 AM 30.2 °F - 30.2 °F 100% 29.86 in 5.0 mi Calm Calm - N/A   Clear
8:34 AM 30.2 °F - 28.4 °F 93% 29.86 in 5.0 mi Calm Calm - N/A   Clear
8:54 AM 30.2 °F 25.4 °F 30.2 °F 100% 29.85 in 4.0 mi East 4.6 mph - N/A   Clear
9:14 AM 33.8 °F - 33.8 °F 100% 29.85 in 7.0 mi Calm Calm - N/A   Clear
9:34 AM 35.6 °F - 33.8 °F 93% 29.86 in 7.0 mi Calm Calm - N/A   Clear
9:54 AM 35.6 °F - 33.8 °F 93% 29.86 in 7.0 mi Calm Calm - N/A   Clear
10:14 AM 35.6 °F - 33.8 °F 93% 29.87 in 7.0 mi Calm Calm - N/A   Clear
10:34 AM 37.4 °F - 35.6 °F 93% 29.85 in 7.0 mi Calm Calm - N/A   Clear
10:54 AM 39.2 °F 34.2 °F 35.6 °F 87% 29.84 in 10.0 mi East 6.9 mph - N/A   Clear
11:14 AM 39.2 °F 35.9 °F 35.6 °F 87% 29.84 in 10.0 mi East 4.6 mph - N/A   Clear
11:34 AM 39.2 °F - 35.6 °F 87% 29.84 in 10.0 mi Calm Calm - N/A   Clear
11:54 AM 39.2 °F 37.0 °F 35.6 °F 87% 29.83 in 10.0 mi South 3.5 mph - N/A   Clear
12:14 PM 39.2 °F 37.0 °F 37.4 °F 93% 29.82 in 10.0 mi South 3.5 mph - N/A   Clear
12:34 PM 39.2 °F 35.0 °F 35.6 °F 87% 29.79 in 10.0 mi SE 5.8 mph - N/A   Clear
12:54 PM 39.2 °F 35.9 °F 37.4 °F 93% 29.78 in 10.0 mi SSE 4.6 mph - N/A   Clear
1:14 PM 39.2 °F - 37.4 °F 93% 29.78 in 7.0 mi Calm Calm - N/A   Clear
1:34 PM 39.2 °F - 37.4 °F 93% 29.77 in 10.0 mi Calm Calm - N/A   Clear
1:54 PM 39.2 °F - 37.4 °F 93% 29.76 in 10.0 mi Calm Calm - N/A   Clear
2:14 PM 41.0 °F - 37.4 °F 87% 29.76 in 10.0 mi Calm Calm - N/A   Clear
2:34 PM 41.0 °F 37.1 °F 37.4 °F 87% 29.73 in 10.0 mi ENE 5.8 mph - N/A   Clear
2:54 PM 41.0 °F - 37.4 °F 87% 29.73 in 10.0 mi Calm Calm - N/A   Clear
3:14 PM 41.0 °F 39.0 °F 37.4 °F 87% 29.71 in 10.0 mi NNE 3.5 mph - N/A   Clear
3:34 PM 39.2 °F 37.0 °F 37.4 °F 93% 29.70 in 7.0 mi North 3.5 mph - N/A   Clear
3:59 PM 39.2 °F 37.0 °F 37.4 °F 93% 29.70 in 7.0 mi North 3.5 mph - N/A   Clear
4:13 PM 37.4 °F 34.9 °F 37.4 °F 100% 29.68 in 7.0 mi North 3.5 mph - N/A   Clear
4:34 PM 39.2 °F 35.0 °F 37.4 °F 93% 29.68 in 10.0 mi NNE 5.8 mph - N/A   Clear
4:54 PM 37.4 °F 33.8 °F 35.6 °F 93% 29.67 in 10.0 mi NE 4.6 mph - N/A   Clear
5:13 PM 39.2 °F 35.9 °F 37.4 °F 93% 29.66 in 10.0 mi ENE 4.6 mph - N/A   Clear
5:34 PM 37.4 °F - 35.6 °F 93% 29.66 in 10.0 mi Calm Calm - N/A   Clear
5:54 PM 37.4 °F - 35.6 °F 93% 29.65 in 10.0 mi Calm Calm - N/A   Clear
6:14 PM 35.6 °F - 33.8 °F 93% 29.65 in 10.0 mi Calm Calm - N/A   Clear
6:34 PM 33.8 °F 30.8 °F 33.8 °F 100% 29.64 in 7.0 mi NNE 3.5 mph - N/A   Clear
6:54 PM 35.6 °F 32.8 °F 33.8 °F 93% 29.62 in 7.0 mi NE 3.5 mph - N/A   Clear
7:14 PM 35.6 °F 31.7 °F 33.8 °F 93% 29.62 in 7.0 mi ENE 4.6 mph - N/A   Clear
7:34 PM 35.6 °F 31.7 °F 33.8 °F 93% 29.61 in 10.0 mi NE 4.6 mph - N/A   Clear
7:54 PM 35.6 °F 31.7 °F 33.8 °F 93% 29.60 in 7.0 mi NNE 4.6 mph - N/A   Clear
8:14 PM 33.8 °F 28.6 °F 33.8 °F 100% 29.60 in 7.0 mi NNE 5.8 mph - N/A   Clear
8:34 PM 35.6 °F 31.7 °F 35.6 °F 100% 29.59 in 10.0 mi NE 4.6 mph - N/A   Clear
8:54 PM 35.6 °F 29.2 °F 35.6 °F 100% 29.57 in 10.0 mi East 8.1 mph - N/A   Clear
9:14 PM 35.6 °F 29.9 °F 35.6 °F 100% 29.56 in 10.0 mi East 6.9 mph - N/A   Clear
9:34 PM 35.6 °F 28.6 °F 33.8 °F 93% 29.55 in 10.0 mi East 9.2 mph - N/A   Clear
9:54 PM 35.6 °F 32.8 °F 33.8 °F 93% 29.55 in 10.0 mi NE 3.5 mph - N/A   Clear
10:14 PM 35.6 °F 30.7 °F 33.8 °F 93% 29.55 in 10.0 mi WNW 5.8 mph - N/A   Clear
10:34 PM 33.8 °F 29.6 °F 32.0 °F 93% 29.55 in 5.0 mi NW 4.6 mph - N/A   Clear
10:54 PM 32.0 °F 26.4 °F 32.0 °F 100% 29.54 in 5.0 mi NW 5.8 mph - N/A   Clear
11:14 PM 32.0 °F 23.6 °F 32.0 °F 100% 29.55 in 7.0 mi NW 10.4 mph - N/A   Clear
11:34 PM 32.0 °F 23.0 °F 32.0 °F 100% 29.55 in 7.0 mi NNW 11.5 mph - N/A   Clear
11:54 PM 33.8 °F 25.3 °F 32.0 °F 93% 29.54 in 10.0 mi NNW 11.5 mph - N/A   Clear